GW1707 Weather Reports


time (UTC)temp
F
wind
direction
speed
knots
gust
knots
rain 1hr
in
rain 24hr
in
rain mn
in
humidity
%
barometer
mb
20260504223051 49 0 0.0 0.0 0.00 0.24 0.00 97 1024.2
20260504221555 48 0 0.0 0.0 0.00 0.25 0.00 97 1024.1
20260504220054 48 0 0.0 0.0 0.00 0.25 0.00 97 1024.0
20260504214558 48 0 0.0 0.0 0.00 0.25 0.00 97 1023.8
20260504213055 48 0 0.0 0.0 0.00 0.25 0.00 97 1023.6
20260504211553 48 0 0.0 0.0 0.00 0.33 0.00 97 1023.4
20260504210106 48 0 0.0 0.0 0.00 0.33 0.00 97 1023.2
20260504204605 48 0 0.0 0.0 0.00 0.33 0.00 97 1023.2
20260504203104 48 0 0.0 0.0 0.00 0.33 0.00 97 1023.1
20260504201553 48 0 0.0 0.0 0.00 0.36 0.00 96 1023.0
20260504200054 48 0 0.0 0.0 0.00 0.36 0.00 97 1022.9
20260504194601 48 0 0.0 0.0 0.00 0.36 0.00 96 1022.9
20260504193053 48 0 0.0 0.0 0.00 0.36 0.00 96 1022.7
20260504191555 48 0 0.0 0.0 0.00 0.37 0.00 96 1022.6
20260504190127 48 0 0.0 0.0 0.00 0.37 0.00 96 1022.4
20260504184551 48 0 0.0 0.0 0.00 0.37 0.00 96 1022.1
20260504183054 48 0 0.0 0.0 0.00 0.37 0.00 96 1022.0
20260504181554 49 0 0.0 0.0 0.00 0.37 0.00 96 1022.1
20260504180054 49 0 0.0 0.0 0.00 0.37 0.00 96 1022.2
20260504174600 49 0 0.0 0.0 0.00 0.37 0.00 96 1022.2
20260504173057 49 0 0.0 0.0 0.00 0.37 0.00 96 1022.0
20260504171553 49 0 0.0 0.0 0.00 0.37 0.00 96 1022.3
20260504081601 51 0 0.0 0.0 0.03 0.55 0.48 93 1018.8
20260504060118 55 0 0.0 0.0 0.00 0.46 0.36 90 1017.4
20260504050115 54 0 0.0 0.0 0.10 0.51 0.36 87 1016.9
20260504044554 57 0 0.0 0.0 0.00 0.40 0.25 87 1016.6
20260504043107 56 0 0.0 0.0 0.00 0.40 0.25 83 1016.4
20260504041554 57 0 0.0 0.0 0.00 0.41 0.25 84 1016.3
20260504040108 56 0 0.0 0.0 0.00 0.41 0.25 84 1016.3
20260504034601 57 0 0.0 0.0 0.00 0.41 0.25 84 1016.3
20260504033101 58 0 0.0 0.0 0.00 0.41 0.25 82 1016.3
20260504031604 58 0 0.0 0.0 0.00 0.44 0.25 87 1016.2
20260504030052 58 0 0.0 0.0 0.00 0.44 0.25 85 1016.4
20260504024553 58 0 0.0 0.0 0.00 0.44 0.25 87 1016.4
20260504023053 58 0 0.0 0.0 0.00 0.44 0.25 89 1016.3
20260504021558 56 0 0.0 0.0 0.00 0.45 0.25 88 1016.5
20260504020053 57 0 0.0 0.0 0.00 0.45 0.25 91 1016.3
20260504014600 56 0 0.0 0.0 0.00 0.45 0.25 92 1016.1
20260504013103 56 0 0.0 0.0 0.00 0.45 0.25 95 1016.0
20260504011556 55 0 0.0 0.0 0.00 0.46 0.25 96 1016.1
20260504010115 54 0 0.0 0.0 0.00 0.46 0.25 96 1015.9
20260504004603 54 0 0.0 0.0 0.00 0.46 0.25 97 1015.8
20260504003059 54 0 0.0 0.0 0.00 0.46 0.25 96 1015.7
20260504001601 53 0 0.0 0.0 0.00 0.46 0.25 96 1015.5
20260504000101 53 0 0.0 0.0 0.01 0.46 0.25 97 1015.4
20260503234554 53 0 0.0 0.0 0.01 0.46 0.25 97 1015.1
20260503233101 52 0 0.0 0.0 0.01 0.46 0.25 97 1015.0
20260503231554 52 0 0.0 0.0 0.00 0.45 0.25 97 1014.8
20260503230055 52 0 0.0 0.0 0.00 0.44 0.24 97 1014.5
20260503224553 52 0 0.0 0.0 0.00 0.44 0.24 97 1014.1